Wind_Speed
38 41 43 44 46 49 52 53 55 56 55 57 60 62 61 61 61 61 61 59 58 56 54 52 51 50 48 47 45 43 41 39 38 36 35 34 33 33 32 31 31 30 29 29
37 38 37 41 44 48 51 53 53 53 54 56 58 61 61 62 62 61 61 60 59 57 56 54 53 52 51 49 47 45 42 41 39 37 36 35 35 34 33 32 32 31 31 31
35 33 36 40 44 47 50 52 51 50 50 53 56 60 61 62 62 62 61 60 59 58 57 55 54 53 52 51 49 46 44 42 41 39 38 37 36 35 34 34 34 33 33 32
32 31 35 38 41 44 48 49 48 48 50 52 54 58 60 60 62 62 61 60 60 59 58 57 55 54 53 51 50 48 46 44 43 41 40 39 38 36 36 36 35 35 34 33
30 30 32 35 37 41 44 45 47 47 48 51 53 58 59 57 60 61 60 59 59 59 59 58 57 55 53 52 52 50 49 47 45 43 41 40 39 38 38 37 36 36 35 35
28 29 30 30 33 38 42 44 46 47 48 52 52 55 59 56 56 57 58 58 58 58 58 59 58 57 55 54 53 52 51 49 47 45 43 41 39 39 39 38 37 37 37 36
26 27 30 30 32 35 39 42 43 46 50 52 49 54 58 53 52 53 56 56 57 58 59 59 60 58 57 55 54 53 52 51 49 46 44 42 40 40 39 39 39 38 38 38
23 23 27 31 32 35 37 40 42 44 46 49 50 54 53 49 49 51 52 54 55 57 58 59 59 59 58 57 55 54 53 52 50 48 45 43 42 41 40 39 39 39 38 38
23 22 23 28 32 35 36 38 39 41 42 42 47 49 48 47 49 49 49 51 53 54 56 57 58 59 58 57 56 54 53 52 51 49 47 45 43 42 41 40 40 39 39 38
23 22 22 24 28 33 35 35 38 43 42 42 43 44 45 44 47 48 47 49 51 52 54 55 56 57 58 57 56 55 53 53 51 50 48 46 45 44 43 42 41 40 39 39
24 23 21 23 24 28 33 34 36 39 41 41 39 38 37 40 41 44 44 46 48 49 51 53 54 55 55 55 56 55 54 53 52 50 49 48 47 45 44 43 42 41 41 40
22 24 23 23 24 26 29 32 34 37 40 41 39 33 32 37 39 40 42 44 46 47 49 51 53 54 55 55 55 54 54 53 52 50 49 48 47 46 45 44 42 42 41 39
20 23 24 22 23 25 28 31 33 35 36 39 40 34 31 31 34 37 38 40 43 45 47 49 51 53 53 53 53 53 53 53 52 51 50 49 48 47 46 45 44 42 41 40
22 23 24 25 24 25 28 30 32 35 37 37 36 33 32 33 34 34 35 37 39 42 45 48 49 51 51 51 52 51 51 51 51 50 49 48 48 46 45 44 43 42 40 40
23 24 26 26 26 27 28 30 32 34 35 38 36 35 32 33 34 34 33 34 36 39 43 46 47 49 50 50 50 51 50 50 50 49 48 47 46 45 44 43 41 40 39 38
23 24 25 26 27 27 28 29 31 33 34 36 38 36 33 32 31 33 33 32 34 37 41 44 45 47 48 49 49 49 49 48 48 48 47 45 45 45 44 42 41 40 39 37
22 23 25 25 26 27 26 28 31 31 33 36 39 36 35 34 31 31 32 32 34 36 39 41 42 44 46 47 47 48 48 47 46 45 45 44 42 42 42 41 40 39 37 36
21 22 23 24 25 26 24 26 28 29 32 36 38 38 37 36 34 32 32 32 33 35 39 40 40 42 44 45 46 45 46 45 44 42 42 41 40 39 38 38 37 37 36 35
20 21 22 22 23 24 23 25 27 28 29 34 38 39 39 38 36 34 33 34 35 37 39 41 40 40 42 43 43 44 43 43 42 40 39 38 38 37 37 36 35 35 35 34
20 21 22 22 23 23 22 24 27 29 29 32 34 37 39 39 38 35 35 35 35 38 39 40 41 40 40 40 40 41 41 40 39 38 37 37 36 36 35 35 34 34 33 32
19 20 21 21 23 23 22 24 27 27 29 32 32 34 37 38 38 36 35 36 37 38 40 40 40 39 39 39 39 39 38 37 37 36 36 35 35 34 34 33 33 32 31 31
21 21 21 22 23 22 22 25 27 27 29 31 32 33 35 37 37 36 35 36 38 38 38 39 40 40 39 39 38 38 37 36 35 35 34 34 33 33 32 32 31 30 29 29
23 23 23 23 22 23 25 26 27 28 29 31 32 34 35 36 37 38 36 37 39 39 39 39 40 40 39 38 37 36 35 34 33 33 32 32 31 31 30 30 29 28 28 28
23 24 26 25 24 25 27 28 28 29 30 30 31 32 35 35 36 37 38 37 39 40 41 40 40 39 38 37 35 34 34 33 32 31 31 30 30 29 28 27 27 27 26 26
24 26 28 27 26 27 28 30 30 30 31 32 31 31 33 35 35 36 37 38 40 41 41 40 40 39 38 37 35 34 33 32 31 30 30 29 28 27 26 26 26 25 25 25
23 26 28 28 27 29 29 31 31 31 30 32 31 31 32 33 35 36 37 38 40 40 41 41 41 40 39 38 36 34 32 31 31 30 29 28 27 26 26 25 25 24 24 24
Wind_Direction
252 249 246 244 242 241 239 238 237 235 234 235 234 232 230 229 228 227 227 226 226 226 226 226 226 227 228 228 228 228 228 228 229 231 232 233 235 236 238 240 242 245 250 255
252 250 247 244 240 238 236 236 235 235 233 235 234 233 230 229 228 227 227 226 225 225 225 226 226 226 227 228 228 228 228 229 230 232 233 234 235 237 239 241 244 248 252 256
254 250 246 243 239 236 235 234 234 234 233 234 235 234 231 229 228 227 226 226 225 226 225 225 226 227 227 227 228 228 229 230 232 233 234 235 236 238 241 244 246 250 253 257
255 250 246 243 238 236 234 232 232 232 232 231 232 234 230 230 229 227 227 227 226 226 226 225 226 228 228 228 228 229 230 231 232 234 235 237 238 241 243 246 249 252 255 258
256 252 247 241 237 235 234 230 230 230 232 233 231 234 230 230 229 228 228 228 227 227 227 226 226 227 229 229 229 230 231 232 233 235 236 238 239 241 243 246 249 252 256 260
256 252 248 242 235 233 231 229 230 229 231 233 230 234 232 228 230 229 228 227 227 227 227 227 227 227 228 229 229 230 231 232 234 235 237 239 240 242 244 247 250 252 256 260
257 251 246 239 235 230 229 228 232 232 232 234 231 235 233 228 230 230 229 228 228 227 227 228 228 227 228 229 230 230 231 233 234 235 237 239 241 244 246 248 251 253 257 261
258 249 242 238 235 231 228 228 231 234 237 236 234 237 232 229 230 230 229 228 228 228 228 229 228 228 229 229 230 231 232 233 234 235 237 239 242 245 247 249 251 254 257 261
261 252 241 238 236 233 229 230 231 234 237 239 238 237 233 229 229 228 228 228 228 228 228 229 229 229 229 229 231 232 233 234 235 236 237 239 242 245 247 250 252 254 257 260
265 258 241 239 236 232 232 232 230 232 235 238 238 236 232 230 230 229 230 229 229 229 227 228 229 229 229 229 230 231 232 233 235 237 238 240 243 245 248 250 252 254 256 259
264 257 242 237 235 233 231 231 230 232 235 236 236 234 231 232 231 230 230 229 228 228 228 228 228 229 229 229 229 231 233 234 235 237 238 240 242 244 247 249 251 253 256 258
262 257 249 239 237 235 233 230 229 232 233 231 231 229 228 231 230 230 230 229 228 227 228 228 228 228 228 229 229 230 232 234 235 236 238 239 241 243 245 247 249 252 255 257
259 256 249 238 235 233 231 229 228 228 230 230 229 225 225 226 228 229 229 228 226 226 226 226 227 227 227 228 229 230 231 233 235 237 238 239 240 242 244 246 249 252 255 257
258 251 246 239 234 232 230 230 230 228 227 226 224 223 222 224 226 229 228 226 225 224 223 224 225 225 226 227 229 230 231 232 234 236 238 239 241 242 244 246 248 251 254 256
259 251 246 242 240 238 233 230 229 230 229 226 222 223 222 224 227 228 227 226 223 223 221 221 222 223 224 225 227 229 230 232 233 235 237 239 240 241 243 246 248 251 253 256
261 254 246 242 241 241 236 230 229 230 229 225 223 223 221 223 227 228 226 224 221 220 220 220 220 221 223 224 225 228 229 230 232 234 235 237 238 240 242 244 247 250 253 255
263 258 251 245 242 242 237 233 232 229 225 224 224 222 221 221 222 224 224 222 220 218 216 218 218 219 221 222 224 226 227 229 231 233 233 235 237 239 241 243 245 248 250 253
264 261 257 249 244 243 237 233 231 227 224 223 223 221 221 221 223 222 218 218 216 214 213 215 216 217 218 220 221 223 225 227 229 230 232 234 236 238 240 242 244 246 249 252
262 261 259 253 248 243 235 232 230 227 223 221 222 223 221 219 220 221 216 215 214 212 211 211 213 215 216 218 221 222 224 225 227 229 231 233 235 238 240 241 243 245 247 250
259 259 258 253 249 245 234 228 228 227 226 221 220 220 220 218 218 216 215 214 214 211 210 211 211 213 214 217 220 221 222 223 225 227 229 231 234 236 239 241 243 245 247 250
257 257 257 254 250 243 233 224 226 229 226 225 222 220 220 218 218 217 214 213 214 212 211 212 211 211 212 215 217 218 219 221 223 225 227 230 232 234 236 239 241 244 247 250
256 255 254 252 248 242 234 226 225 227 227 227 226 223 222 220 218 215 213 212 211 210 210 211 212 212 212 214 216 218 219 220 221 223 225 227 230 232 235 237 241 244 247 250
259 255 252 248 244 238 234 230 224 224 225 226 226 224 222 220 219 216 213 212 211 208 207 209 211 212 213 214 216 216 217 219 220 221 224 227 229 231 233 237 240 244 247 250
258 254 251 247 241 237 234 232 227 224 224 224 224 223 222 220 219 217 214 210 208 207 207 208 209 211 212 214 215 215 216 218 219 221 223 226 228 231 233 236 240 243 247 251
258 256 251 247 242 240 236 234 231 227 224 222 221 220 220 221 219 216 215 212 209 209 208 209 211 211 213 214 215 215 216 218 219 221 222 225 228 230 233 236 240 244 247 250
258 258 252 245 242 241 236 233 230 227 223 220 220 219 218 217 217 216 215 212 210 209 209 210 211 212 212 214 214 214 216 218 220 221 223 225 227 230 234 237 240 244 248 251
Height
5550 5554 5558 5565 5570 5577 5582 5587 5594 5604 5613 5617 5623 5632 5642 5650 5657 5666 5675 5684 5692 5701 5710 5717 5723 5730 5735 5741 5747 5753 5759 5764 5768 5773 5778 5782 5786 5790 5794 5797 5799 5802 5804 5806
5539 5543 5551 5554 5557 5562 5568 5573 5581 5591 5599 5604 5610 5618 5628 5635 5645 5654 5663 5673 5682 5690 5699 5707 5714 5720 5727 5733 5739 5746 5752 5757 5762 5767 5772 5776 5780 5783 5787 5790 5793 5796 5798 5800
5529 5536 5539 5541 5545 5550 5556 5563 5572 5580 5587 5591 5597 5603 5613 5623 5633 5642 5651 5661 5671 5679 5688 5697 5704 5711 5718 5725 5732 5738 5745 5750 5755 5760 5764 5768 5773 5777 5781 5784 5787 5789 5792 5794
5520 5525 5527 5530 5535 5540 5546 5556 5562 5568 5573 5578 5586 5590 5602 5611 5620 5630 5641 5651 5661 5670 5678 5687 5695 5702 5710 5717 5724 5730 5736 5742 5747 5752 5757 5762 5767 5771 5775 5777 5780 5782 5785 5787
5513 5515 5516 5520 5527 5532 5538 5546 5552 5557 5562 5567 5574 5578 5589 5599 5607 5620 5632 5642 5651 5660 5669 5677 5685 5694 5701 5708 5715 5721 5728 5734 5739 5744 5750 5755 5759 5764 5767 5770 5773 5775 5777 5780
5505 5507 5509 5514 5519 5524 5530 5536 5541 5546 5550 5553 5563 5568 5576 5589 5600 5613 5623 5632 5641 5650 5658 5666 5675 5683 5691 5698 5705 5712 5718 5725 5731 5737 5742 5747 5752 5755 5759 5762 5765 5768 5770 5772
5497 5500 5503 5506 5510 5515 5521 5527 5532 5535 5538 5544 5556 5557 5567 5584 5594 5603 5613 5622 5631 5639 5647 5655 5663 5672 5680 5688 5696 5703 5709 5716 5722 5728 5734 5739 5744 5747 5751 5755 5758 5760 5763 5765
5490 5493 5496 5499 5503 5508 5513 5519 5524 5529 5534 5541 5547 5548 5563 5578 5584 5592 5601 5610 5618 5626 5636 5644 5653 5662 5670 5678 5686 5693 5701 5707 5714 5720 5726 5731 5735 5739 5743 5746 5749 5752 5755 5756
5484 5487 5491 5493 5497 5502 5506 5511 5518 5522 5527 5532 5536 5545 5557 5565 5572 5581 5590 5598 5607 5616 5625 5635 5643 5651 5660 5669 5677 5684 5692 5698 5705 5711 5717 5722 5727 5731 5735 5738 5741 5744 5746 5748
5478 5481 5485 5488 5491 5495 5500 5506 5510 5514 5518 5523 5530 5538 5548 5557 5565 5574 5581 5589 5598 5606 5615 5624 5632 5640 5649 5659 5667 5674 5681 5689 5695 5702 5708 5713 5718 5723 5726 5729 5732 5735 5738 5739
5473 5475 5479 5482 5485 5489 5494 5498 5502 5508 5513 5518 5524 5535 5543 5550 5558 5565 5572 5580 5588 5596 5604 5613 5622 5630 5639 5648 5656 5664 5672 5679 5685 5692 5698 5704 5709 5713 5717 5720 5724 5727 5729 5730
5468 5470 5472 5476 5479 5482 5486 5491 5496 5501 5507 5512 5518 5530 5536 5541 5548 5556 5563 5570 5578 5586 5594 5602 5611 5620 5628 5637 5646 5654 5662 5669 5677 5683 5689 5694 5699 5704 5708 5711 5715 5717 5720 5722
5464 5465 5468 5471 5475 5477 5480 5485 5489 5494 5499 5505 5512 5524 5528 5533 5539 5546 5554 5561 5568 5576 5584 5592 5600 5610 5619 5628 5636 5645 5653 5660 5667 5673 5679 5684 5689 5694 5699 5702 5706 5709 5711 5713
5458 5460 5462 5465 5466 5469 5474 5478 5482 5486 5491 5498 5506 5515 5520 5526 5532 5539 5545 5552 5559 5567 5574 5582 5591 5601 5609 5618 5626 5635 5643 5650 5657 5663 5669 5674 5680 5685 5689 5693 5697 5699 5702 5704
5452 5454 5455 5458 5460 5463 5467 5472 5476 5480 5486 5493 5501 5507 5513 5518 5524 5531 5538 5544 5551 5558 5566 5574 5583 5591 5600 5608 5617 5625 5633 5640 5646 5653 5659 5665 5671 5675 5679 5684 5687 5690 5693 5695
5446 5448 5450 5452 5455 5457 5461 5466 5470 5475 5481 5487 5494 5500 5507 5512 5518 5524 5530 5537 5544 5550 5558 5566 5574 5582 5591 5599 5607 5615 5623 5630 5637 5643 5650 5655 5661 5666 5670 5674 5678 5681 5683 5686
5441 5442 5444 5447 5449 5451 5457 5462 5465 5469 5475 5481 5486 5495 5500 5505 5511 5516 5523 5529 5536 5543 5550 5558 5566 5574 5582 5590 5598 5606 5613 5620 5627 5634 5640 5646 5651 5656 5661 5665 5669 5672 5675 5677
5437 5437 5438 5441 5444 5447 5455 5456 5459 5463 5468 5473 5479 5485 5491 5498 5503 5509 5515 5522 5528 5536 5544 5551 5559 5567 5574 5582 5589 5597 5604 5611 5618 5625 5631 5637 5642 5647 5652 5656 5660 5663 5666 5669
5432 5432 5433 5436 5437 5441 5447 5449 5452 5456 5460 5466 5472 5478 5484 5490 5496 5502 5509 5515 5522 5529 5536 5544 5552 5560 5567 5574 5581 5589 5596 5603 5610 5616 5623 5629 5634 5639 5643 5647 5651 5655 5658 5660
5427 5428 5429 5430 5431 5435 5441 5443 5445 5450 5454 5459 5464 5470 5476 5482 5490 5497 5502 5509 5515 5522 5529 5537 5545 5553 5560 5567 5574 5581 5588 5595 5602 5609 5615 5621 5626 5631 5635 5639 5643 5646 5649 5652
5421 5422 5424 5425 5425 5429 5434 5437 5440 5446 5449 5453 5458 5463 5469 5475 5483 5490 5496 5503 5510 5516 5523 5531 5538 5546 5554 5561 5568 5575 5582 5588 5595 5601 5607 5613 5618 5623 5627 5631 5635 5639 5642 5644
5415 5416 5418 5419 5420 5427 5428 5430 5434 5437 5441 5446 5451 5457 5463 5469 5476 5483 5490 5496 5503 5510 5517 5525 5532 5540 5547 5555 5562 5569 5576 5582 5588 5594 5600 5605 5610 5615 5620 5624 5627 5631 5634 5636
5409 5411 5411 5413 5417 5419 5420 5423 5427 5430 5435 5439 5444 5450 5456 5462 5469 5476 5483 5490 5497 5504 5511 5519 5527 5534 5542 5549 5556 5563 5569 5576 5582 5588 5593 5598 5603 5608 5612 5616 5620 5623 5626 5629
5403 5403 5404 5406 5409 5412 5414 5416 5420 5424 5428 5432 5438 5443 5449 5455 5462 5469 5476 5483 5490 5497 5505 5513 5521 5528 5536 5543 5550 5557 5563 5570 5576 5581 5587 5592 5597 5601 5606 5610 5613 5617 5619 5622
5396 5396 5396 5398 5402 5404 5407 5410 5413 5417 5421 5426 5431 5436 5442 5449 5455 5462 5469 5476 5484 5491 5499 5507 5515 5523 5530 5537 5544 5551 5558 5564 5570 5575 5581 5586 5591 5595 5599 5603 5607 5610 5612 5614
5388 5388 5389 5391 5395 5396 5400 5403 5406 5410 5414 5420 5425 5430 5436 5442 5449 5456 5463 5470 5477 5485 5493 5501 5509 5517 5524 5531 5539 5546 5552 5558 5564 5570 5575 5580 5585 5589 5593 5597 5600 5602 5605 5607